Wetbulb
63.40 60.38 58.26 59.90 60.71 57.07 60.45 57.84 57.37 60.06 61.92 61.04 60.68 59.68 61.80 66.96 66.67 66.57 67.97 68.55 69.18 69.80 71.43 72.32 72.77 73.57 74.04 74.52 74.85 75.36 75.73 75.81 76.11 75.77 75.13 74.81 73.69 75.95 76.31 76.98 77.43 76.55 77.56 78.26
61.29 58.39 61.09 61.31 60.78 59.92 59.14 58.64 58.22 60.28 61.52 60.72 59.57 59.37 61.58 64.37 65.94 66.98 67.45 68.44 69.36 69.90 70.91 71.67 72.39 73.10 73.53 74.16 74.57 75.28 75.52 75.39 76.10 76.24 77.62 76.63 75.39 74.92 75.39 76.39 77.08 78.69 78.22 78.70
59.56 59.33 62.35 59.77 59.35 58.71 58.96 58.06 57.88 57.88 59.97 58.63 59.97 54.44 58.65 63.68 65.36 67.20 67.93 68.89 69.65 70.02 70.31 71.30 71.92 72.48 73.28 73.74 73.98 75.18 76.17 76.18 76.77 78.47 76.86 77.07 76.82 77.21 75.70 75.89 76.39 77.88 78.31 78.44
60.10 62.90 60.64 58.89 58.61 58.96 54.39 61.62 58.92 58.52 57.88 46.82 60.64 51.40 56.23 62.18 64.04 65.43 66.89 67.81 68.72 69.85 71.37 71.62 71.94 72.26 72.76 73.74 74.79 75.30 76.50 76.86 77.18 77.99 77.69 77.19 74.35 74.98 76.29 76.80 76.24 76.69 77.69 77.11
59.13 60.10 59.46 58.33 58.96 60.85 58.19 60.85 59.24 58.78 57.84 57.14 55.84 55.39 53.16 61.14 60.74 63.44 65.90 67.24 68.26 69.74 70.77 71.41 72.00 72.58 73.14 74.05 74.00 75.07 76.66 76.90 77.78 77.75 78.60 76.42 76.25 76.54 76.52 76.94 76.99 78.31 77.84 78.02
61.14 63.28 61.40 60.47 61.23 61.17 61.90 59.63 58.96 58.77 57.52 52.61 55.42 54.93 53.37 57.27 60.17 62.97 65.14 66.59 68.01 69.02 70.37 71.62 72.97 73.29 73.13 73.63 74.02 74.89 76.13 76.74 77.22 77.16 77.11 76.59 75.37 76.08 75.53 75.72 75.79 77.97 79.45 77.15
58.87 60.27 62.54 61.93 59.61 61.68 60.10 57.15 51.94 50.99 47.61 46.69 56.58 55.85 55.37 60.73 62.66 62.77 64.55 66.60 67.66 69.63 70.42 70.85 72.17 72.08 72.81 73.03 73.12 73.98 75.49 75.64 76.57 76.52 76.13 76.43 76.98 77.48 76.53 76.38 76.55 77.52 76.94 75.47
55.29 53.75 59.95 62.40 59.94 58.37 58.95 57.69 52.75 48.05 48.37 50.52 54.34 51.96 52.85 61.52 64.74 64.74 67.03 67.46 68.53 69.08 69.99 70.62 72.11 72.16 72.65 72.57 72.81 73.11 74.44 75.28 75.87 76.09 77.41 78.22 78.23 76.84 77.15 76.47 76.20 74.78 74.60 74.39
55.00 55.09 60.52 61.12 61.56 60.36 57.30 55.32 58.32 53.65 55.00 50.92 52.90 56.08 60.05 61.43 62.91 64.04 64.64 67.99 68.38 68.96 69.53 70.71 71.77 72.17 72.77 72.40 73.16 74.28 75.78 76.10 76.44 76.84 77.89 77.57 77.16 77.47 76.94 76.38 76.00 74.22 74.77 72.54
57.66 53.35 58.06 59.24 60.32 60.08 58.10 59.51 54.47 54.98 49.11 47.84 50.96 53.39 54.00 56.69 61.53 63.28 63.91 66.35 68.43 69.65 70.21 71.19 71.36 71.82 72.43 72.74 73.61 75.18 76.63 76.41 76.63 77.01 77.28 77.17 77.02 76.84 75.84 75.41 73.64 72.18 71.38 70.76
57.43 55.03 54.73 56.02 54.74 54.13 54.85 54.85 56.57 56.47 54.50 49.91 48.19 50.28 58.58 58.10 59.21 62.95 64.29 66.14 68.66 69.73 70.42 71.30 71.42 71.87 72.35 73.11 73.56 75.20 76.29 76.37 76.04 76.41 77.04 76.66 75.77 75.39 74.11 71.73 71.04 70.06 70.21 70.34
57.51 54.98 51.57 53.46 56.62 58.46 57.91 56.87 55.88 52.87 52.72 53.81 53.47 52.12 59.13 59.95 60.26 62.22 63.78 66.97 69.18 70.59 71.12 71.76 71.58 71.94 72.12 72.97 73.63 75.37 75.75 75.20 75.59 77.29 77.30 75.75 74.68 72.53 70.62 70.09 69.78 69.66 69.49 69.78
56.84 53.12 50.13 51.53 54.43 56.10 53.91 55.31 55.55 55.97 55.77 53.50 51.11 52.99 59.41 59.59 60.28 64.48 62.72 67.59 69.61 70.72 71.12 71.74 71.85 71.92 72.30 72.93 73.88 74.63 74.29 74.22 75.41 76.47 75.64 74.26 72.04 69.91 69.43 69.31 69.26 69.16 69.15 69.32
61.71 54.16 52.44 50.11 52.84 55.19 53.13 53.77 54.42 53.66 51.01 52.54 53.24 54.08 56.99 58.20 59.42 64.89 64.66 67.72 69.45 71.01 71.57 71.74 71.90 72.64 73.01 74.22 75.10 75.06 73.92 75.35 76.02 75.56 74.73 72.33 70.57 69.97 69.43 69.01 69.10 68.51 69.12 69.06
56.04 52.46 54.09 54.43 54.22 54.32 53.40 52.94 53.53 52.95 53.56 51.81 54.18 54.01 56.61 58.43 62.11 63.60 66.14 67.75 69.38 70.44 71.08 71.67 71.84 72.75 74.21 75.13 75.87 76.23 75.65 76.16 75.68 74.75 73.52 70.70 71.04 70.34 69.29 68.82 68.27 68.10 68.67 68.69
57.67 54.08 55.09 53.76 54.89 54.37 52.68 53.49 53.61 53.77 54.03 54.54 55.35 54.59 58.76 60.71 63.94 63.95 64.70 66.98 69.16 70.58 71.35 72.08 72.76 73.31 74.06 74.89 75.58 76.00 75.87 74.83 74.52 74.19 72.18 71.19 71.04 70.01 68.93 68.17 68.01 68.36 67.98 68.19
56.85 54.44 54.66 51.58 54.19 53.62 50.91 53.33 53.83 54.42 55.56 55.06 52.63 56.37 59.04 58.85 60.21 61.69 63.55 66.77 68.65 70.88 71.81 72.47 73.19 73.97 75.81 75.71 76.75 75.33 74.69 74.21 74.00 73.65 71.56 70.85 70.59 69.29 68.75 67.93 67.50 67.57 67.55 67.82
58.56 57.45 56.13 52.69 54.62 48.10 54.89 57.98 57.54 56.20 56.03 56.73 56.86 57.79 59.06 60.18 62.98 64.43 64.88 66.06 67.80 70.68 72.35 73.63 74.31 75.26 76.17 76.92 76.79 75.97 74.91 74.19 73.86 71.94 70.76 70.51 69.85 69.31 68.95 67.96 67.25 67.34 67.34 67.10
58.97 57.25 54.19 51.93 51.53 53.69 54.55 56.32 55.75 54.90 54.85 58.16 59.35 58.42 60.31 63.05 63.86 63.80 67.34 69.10 69.14 70.65 73.33 74.42 75.51 76.01 76.88 76.92 76.66 75.70 74.36 73.43 72.50 70.62 70.12 70.16 69.65 69.08 68.83 67.57 67.13 66.81 66.83 66.48
59.14 59.02 55.00 53.85 50.63 48.93 56.06 61.16 63.16 60.73 53.55 63.72 64.22 63.95 64.13 64.75 58.56 66.85 69.80 69.28 70.42 71.70 74.13 74.91 75.68 75.77 76.61 76.35 76.09 74.39 73.47 72.74 70.99 69.67 70.00 70.52 70.38 69.81 68.70 68.33 67.77 67.54 66.82 65.95
56.04 55.53 52.97 52.74 50.77 52.80 60.90 62.72 63.09 53.14 57.10 65.36 65.29 65.83 66.10 65.10 67.42 69.43 69.80 70.57 72.73 73.83 74.94 75.80 76.13 75.59 75.56 75.42 74.06 73.04 72.00 70.46 70.54 70.81 70.77 70.72 70.29 69.78 69.62 68.80 67.82 67.06 66.38 66.33
55.10 54.35 53.67 54.04 52.10 50.01 64.02 62.89 58.01 64.19 65.80 66.09 66.24 66.41 66.13 67.48 69.23 69.70 69.27 71.82 73.01 74.33 74.30 75.00 75.13 73.58 74.60 74.36 73.39 71.46 69.71 70.76 71.10 70.98 70.50 70.15 69.87 69.07 68.27 67.52 66.87 66.55 66.19 65.52
54.21 57.31 55.99 57.45 57.35 63.93 64.60 63.60 65.63 66.11 65.89 66.57 66.98 67.28 66.85 66.53 68.51 70.62 69.57 70.76 72.52 73.30 73.23 74.29 72.52 71.58 72.73 72.62 72.23 69.81 70.22 70.01 70.69 69.91 69.66 68.77 69.89 69.38 68.34 67.18 66.72 64.98 65.56 63.38
60.85 62.04 59.02 58.34 59.93 61.53 63.35 64.67 64.90 66.05 66.11 67.35 68.24 68.42 67.44 66.67 69.30 70.20 70.37 70.35 71.08 72.18 72.57 72.75 71.05 69.30 68.72 67.71 69.99 70.14 70.64 70.52 69.65 67.81 69.30 70.34 69.34 68.11 67.53 66.62 65.84 64.70 63.12 62.26
60.83 62.59 58.38 58.93 60.95 62.27 63.06 64.78 65.48 65.93 66.55 67.77 68.91 69.50 69.74 70.36 69.89 70.42 70.39 70.74 70.70 70.22 70.01 69.91 67.55 67.49 67.33 67.98 69.33 70.74 70.38 69.86 69.21 69.65 69.58 69.16 68.11 67.23 66.69 66.86 65.20 63.74 66.44 61.72
60.66 59.32 57.62 58.51 63.82 63.52 63.26 65.86 65.96 65.92 66.43 68.16 69.46 70.45 71.59 71.20 70.57 70.94 70.57 70.82 70.94 70.67 69.84 70.16 69.87 69.41 69.47 69.32 70.11 70.68 70.96 70.69 70.31 69.84 68.12 66.74 65.77 65.18 64.50 63.65 63.73 55.49 54.56 53.05
MSLP
999.75 998.58 997.78 997.96 1000.23 1001.54 1000.55 999.70 998.99 999.16 999.89 1000.00 999.44 999.51 999.64 1000.75 1001.98 1002.50 1003.19 1004.14 1005.27 1005.67 1006.89 1007.34 1007.88 1008.49 1009.39 1010.00 1010.31 1011.06 1011.96 1012.68 1012.70 1012.69 1012.34 1012.24 1012.42 1012.66 1012.93 1012.75 1013.86 1014.32 1014.04 1013.95
998.78 998.34 999.77 998.65 999.30 999.42 999.36 999.98 998.93 998.91 999.67 1000.16 999.81 999.78 999.36 1000.02 1000.66 1001.65 1002.37 1003.08 1004.23 1005.24 1005.79 1006.96 1007.59 1008.09 1009.08 1009.90 1010.28 1010.98 1011.58 1012.65 1012.81 1012.36 1012.47 1012.81 1012.17 1012.18 1012.50 1013.34 1013.95 1013.83 1013.81 1013.72
997.70 998.26 998.53 998.97 999.11 999.02 998.86 999.12 999.30 999.24 999.86 1001.68 1001.73 1002.22 1000.99 1000.21 1000.22 1000.75 1001.68 1002.29 1003.15 1004.14 1005.26 1006.24 1007.30 1007.96 1008.95 1009.59 1010.26 1010.94 1011.64 1012.11 1012.48 1012.33 1012.48 1012.90 1012.83 1012.91 1012.98 1013.07 1013.42 1013.64 1013.73 1013.84
997.97 998.24 998.89 998.96 998.76 998.73 1000.14 1000.14 999.12 999.41 999.94 1002.38 1000.36 1001.54 1001.06 999.97 1000.31 1000.56 1000.89 1001.39 1002.05 1003.04 1004.51 1005.63 1006.72 1007.57 1008.29 1009.15 1009.97 1010.60 1011.52 1011.94 1012.40 1012.46 1012.23 1013.08 1012.95 1012.97 1013.08 1013.06 1013.69 1013.53 1013.65 1013.80
997.70 997.96 998.77 998.81 998.29 998.89 998.69 999.36 999.38 999.49 999.55 999.09 1000.42 999.53 1001.46 999.44 999.30 999.47 1000.40 1000.56 1001.31 1001.95 1003.11 1004.71 1005.95 1006.88 1007.50 1008.81 1009.62 1010.49 1011.74 1012.01 1012.03 1012.56 1012.67 1012.78 1013.14 1013.43 1012.98 1013.34 1014.00 1014.19 1014.03 1013.88
997.61 997.83 998.64 998.70 998.51 999.34 999.35 999.49 998.93 998.76 1000.86 1000.13 1000.99 998.95 1000.36 998.94 999.00 999.33 999.82 1000.48 1000.86 1001.46 1002.55 1003.82 1005.49 1006.60 1007.55 1008.67 1009.48 1010.32 1011.26 1011.93 1012.29 1012.68 1012.99 1013.15 1013.35 1013.27 1013.14 1013.52 1013.86 1014.19 1014.37 1014.27
998.31 997.81 998.39 998.83 998.65 999.14 999.45 999.01 997.67 998.28 1002.95 1003.24 1001.62 999.32 999.09 998.25 998.70 999.01 999.55 1000.35 1000.86 1001.49 1002.51 1003.76 1005.20 1006.39 1007.47 1008.56 1009.22 1009.97 1010.98 1011.61 1012.11 1012.41 1012.62 1012.91 1013.06 1013.06 1013.23 1013.53 1013.82 1014.09 1014.15 1014.37
997.43 997.43 997.83 998.25 998.98 998.49 998.10 997.83 997.48 997.91 998.26 999.82 999.43 999.24 1000.05 999.06 998.61 998.99 999.54 1000.20 1000.87 1001.52 1002.35 1003.68 1005.08 1006.32 1007.45 1008.49 1009.17 1009.73 1010.72 1011.32 1011.67 1012.06 1012.25 1012.54 1012.79 1012.75 1013.34 1013.81 1013.82 1014.26 1014.27 1014.26
996.23 996.48 996.75 997.49 998.25 998.89 998.49 998.44 998.55 997.76 997.25 997.69 999.53 998.98 997.01 997.76 997.77 998.67 999.33 1000.09 1000.89 1001.52 1002.52 1003.78 1005.05 1006.35 1007.41 1008.30 1009.09 1009.78 1010.54 1011.09 1011.43 1011.63 1012.15 1012.62 1013.09 1012.99 1013.44 1013.98 1014.10 1014.01 1014.67 1014.79
996.63 996.64 996.70 997.26 998.28 998.56 998.59 998.34 997.70 997.59 997.62 997.34 997.99 996.93 996.73 997.18 997.45 998.31 998.91 999.84 1000.73 1001.59 1002.73 1003.83 1004.84 1005.91 1007.19 1008.07 1008.99 1009.71 1010.42 1010.81 1010.96 1011.27 1011.87 1012.32 1012.84 1013.44 1013.96 1014.24 1014.45 1014.68 1015.06 1015.18
997.42 997.35 996.98 998.05 998.26 998.06 998.11 998.55 998.31 997.56 997.36 996.88 996.67 996.74 996.92 996.89 996.95 997.42 998.38 999.47 1000.25 1001.42 1002.69 1003.77 1004.74 1005.82 1006.86 1007.75 1008.72 1009.50 1010.13 1010.48 1010.76 1011.11 1011.42 1012.07 1012.90 1013.62 1013.94 1014.32 1014.67 1014.89 1015.12 1015.25
998.00 997.25 997.13 997.27 997.71 997.82 997.45 997.35 998.05 997.61 997.64 997.50 996.86 996.04 995.79 996.25 996.70 997.30 997.74 999.02 999.91 1001.11 1002.39 1003.60 1004.68 1005.69 1006.56 1007.49 1008.42 1009.22 1009.89 1010.39 1010.44 1010.99 1011.86 1012.43 1013.02 1013.38 1013.95 1014.50 1014.81 1014.91 1015.19 1015.22
998.49 998.10 997.06 996.82 997.13 997.87 997.90 997.81 997.61 997.25 996.84 996.53 996.62 996.24 995.99 996.31 996.73 998.00 997.75 998.64 999.95 1000.98 1002.13 1003.26 1004.36 1005.53 1006.33 1007.20 1008.02 1008.91 1009.60 1010.07 1010.56 1011.75 1012.14 1012.64 1013.19 1013.32 1013.89 1014.34 1014.77 1015.05 1015.32 1015.21
998.93 997.63 997.03 996.10 996.16 996.13 996.88 997.40 997.57 997.43 996.86 996.25 995.82 995.71 996.00 996.05 996.28 997.27 998.12 998.67 999.89 1001.00 1002.00 1002.85 1003.79 1004.97 1006.10 1006.86 1007.66 1008.70 1009.40 1010.01 1010.77 1011.59 1012.20 1012.82 1013.13 1013.52 1013.91 1014.65 1014.85 1015.18 1015.46 1015.47
999.08 997.90 997.27 996.61 996.59 996.57 996.54 996.71 996.93 996.96 996.84 996.33 995.52 995.98 995.83 996.13 997.04 997.64 998.28 998.73 999.86 1000.87 1001.59 1002.50 1003.32 1004.40 1005.64 1006.71 1007.42 1008.23 1009.11 1010.07 1010.91 1011.60 1012.29 1012.84 1013.37 1013.86 1014.49 1014.72 1015.11 1015.37 1015.28 1015.40
998.74 997.88 997.72 997.27 997.05 996.75 996.41 996.56 996.41 996.43 996.89 996.66 996.24 995.76 996.02 996.50 997.52 997.88 998.50 998.61 999.59 1000.64 1001.49 1002.27 1003.13 1004.11 1005.47 1006.49 1007.45 1008.34 1009.06 1010.19 1010.84 1011.47 1012.10 1012.87 1013.54 1014.29 1014.52 1014.83 1015.14 1015.29 1015.25 1015.59
997.89 997.78 997.71 997.53 996.94 996.63 996.53 996.61 996.22 996.05 996.16 996.24 996.14 995.90 996.11 996.35 996.94 997.37 997.82 998.87 999.18 1000.13 1001.14 1002.08 1003.04 1003.98 1005.16 1006.26 1007.33 1008.37 1009.43 1010.40 1011.07 1011.65 1012.28 1013.09 1013.69 1014.10 1014.68 1014.95 1015.14 1015.12 1015.17 1015.37
998.16 998.51 998.64 998.10 997.73 997.02 996.59 996.20 996.09 996.07 995.89 995.96 996.13 996.20 996.47 996.82 997.43 998.02 998.09 998.32 998.86 999.38 1000.52 1001.86 1002.92 1004.16 1005.23 1006.22 1007.31 1008.37 1009.49 1010.42 1011.11 1011.87 1012.47 1012.97 1013.46 1013.88 1014.53 1014.90 1014.89 1015.02 1015.02 1015.24
998.38 998.73 998.62 998.54 998.12 997.70 997.12 996.53 996.50 996.49 996.59 996.58 996.47 996.55 996.76 997.42 997.93 997.92 997.63 998.87 998.64 998.82 999.94 1001.39 1002.77 1004.11 1005.35 1006.34 1007.45 1008.44 1009.56 1010.48 1011.32 1011.73 1012.47 1012.94 1013.21 1013.61 1014.25 1014.52 1014.62 1014.86 1014.96 1015.08
999.05 998.99 999.71 999.30 998.73 998.01 997.67 997.83 997.98 997.50 997.82 998.60 998.62 998.42 998.48 998.70 998.19 999.02 999.59 999.35 998.83 998.84 999.87 1001.30 1002.48 1003.75 1005.34 1006.60 1007.62 1008.68 1009.56 1010.32 1011.34 1011.84 1012.44 1013.13 1013.48 1013.85 1014.14 1014.25 1014.42 1014.59 1014.83 1014.83
999.36 999.83 999.47 999.22 999.16 998.97 998.63 999.14 999.21 999.07 1000.00 1000.29 1000.27 1000.19 1000.15 999.95 1000.22 1000.38 1000.39 1000.08 999.46 999.61 1000.55 1001.77 1002.79 1003.98 1005.55 1007.18 1008.38 1008.98 1009.74 1010.81 1011.70 1012.34 1012.86 1013.46 1013.79 1014.04 1014.36 1014.54 1014.67 1014.87 1015.00 1014.93
999.72 999.59 999.24 999.44 999.47 999.71 1000.31 1000.00 999.92 1000.80 1000.86 1001.19 1001.30 1001.15 1001.00 1000.86 1000.63 1000.97 1001.09 1001.23 1001.16 1001.38 1002.18 1002.94 1003.77 1005.23 1006.60 1007.88 1008.49 1009.21 1009.92 1010.67 1011.42 1012.57 1013.28 1013.76 1014.04 1014.01 1014.18 1014.80 1014.94 1014.89 1014.80 1014.80
1000.36 1000.31 1000.08 1000.03 1000.09 1001.03 1001.16 1001.22 1001.21 1001.29 1001.57 1001.57 1001.71 1001.51 1001.30 1001.14 1001.25 1001.59 1002.01 1002.18 1002.91 1003.50 1004.20 1004.30 1005.67 1006.70 1007.85 1008.92 1009.72 1009.60 1010.09 1010.82 1011.33 1011.09 1012.65 1012.83 1013.89 1014.02 1014.14 1014.51 1014.70 1014.52 1014.60 1014.49
1000.64 1001.04 1001.37 1001.02 1000.60 1000.69 1001.23 1001.59 1001.73 1001.98 1002.01 1002.03 1001.98 1001.94 1001.68 1001.52 1001.87 1002.21 1002.82 1003.28 1003.92 1004.49 1004.82 1005.63 1007.03 1007.93 1008.47 1008.96 1010.31 1010.82 1009.96 1010.72 1011.45 1012.02 1012.59 1012.46 1013.31 1013.78 1014.00 1013.87 1013.83 1013.88 1013.64 1013.42
1000.87 1001.86 1001.57 1001.54 1001.38 1001.51 1001.83 1002.44 1002.76 1002.55 1002.53 1002.51 1002.69 1002.41 1002.12 1002.03 1002.33 1002.95 1003.78 1004.59 1005.18 1005.77 1006.37 1006.45 1007.46 1008.40 1009.80 1008.98 1010.40 1010.92 1010.98 1011.47 1011.49 1011.86 1012.34 1012.28 1012.67 1013.26 1013.21 1013.47 1013.22 1013.01 1013.03 1013.41
1001.05 1001.50 1001.82 1002.14 1002.65 1002.99 1002.86 1003.23 1003.35 1003.01 1002.90 1003.01 1003.08 1003.11 1003.05 1003.07 1003.36 1003.86 1004.61 1005.27 1005.50 1006.10 1006.64 1007.15 1007.40 1008.16 1009.29 1009.50 1010.26 1010.41 1010.80 1011.01 1011.08 1011.59 1011.60 1011.59 1011.82 1011.91 1012.15 1012.38 1012.48 1012.96 1013.12 1013.30
Wind_Speed
16 17 12 6 24 37 17 3 5 8 5 6 4 5 6 18 13 13 14 16 14 14 13 12 13 12 12 10 10 10 8 8 6 7 6 4 6 6 2 1 3 3 6 5
13 13 16 8 6 7 9 26 8 6 2 8 5 12 10 10 16 14 15 15 16 14 16 13 12 12 12 12 11 9 8 10 8 7 3 2 2 3 4 6 6 7 6 5
18 7 8 5 6 12 11 3 8 10 10 30 20 7 25 8 8 13 13 13 16 16 14 16 14 13 11 12 10 10 8 11 10 8 4 3 3 2 4 5 2 4 1 4
16 16 7 6 13 5 18 24 5 11 14 9 16 6 12 4 10 8 11 13 14 16 17 13 16 15 13 11 11 10 9 10 10 6 6 7 6 2 2 1 3 2 1 1
19 11 7 12 11 6 12 7 11 14 14 16 11 11 10 4 11 8 11 12 12 13 16 17 15 15 10 11 11 11 11 11 9 8 8 6 7 3 2 0 0 4 3 4
18 10 10 14 11 3 13 13 18 20 17 13 11 8 7 4 9 8 8 9 10 11 11 14 14 13 10 11 11 12 13 12 10 8 8 5 1 6 1 2 2 1 3 3
17 12 10 10 9 10 12 16 15 7 5 7 10 16 3 15 11 6 7 8 9 9 11 12 14 14 12 13 11 12 14 12 11 10 9 8 8 7 4 4 2 2 1 4
15 17 17 13 12 18 15 13 12 11 7 11 14 6 13 18 11 7 7 8 10 11 12 13 14 14 13 14 12 10 13 12 11 11 10 8 6 4 0 3 4 3 2 2
14 18 10 17 13 14 16 16 13 18 17 11 6 8 10 6 11 10 8 10 10 10 11 14 16 14 13 14 12 12 12 12 12 12 8 6 4 5 6 4 3 2 0 4
13 8 7 11 10 13 17 16 14 8 12 9 11 9 7 1 9 8 8 11 12 12 12 14 15 15 14 14 12 12 12 12 11 11 9 7 6 5 5 4 4 3 2 2
16 7 7 5 10 16 13 13 14 18 11 6 6 6 5 6 6 11 9 11 13 13 13 13 14 15 15 14 14 13 12 12 11 10 9 9 8 8 5 5 4 3 2 2
15 7 12 11 11 11 11 9 16 13 15 12 12 6 4 7 9 6 8 12 13 14 14 15 14 15 16 15 15 14 13 13 11 9 9 9 8 7 7 5 5 3 2 3
12 10 11 13 14 11 11 13 15 15 16 15 10 10 7 4 6 4 10 13 12 14 15 15 16 15 15 15 15 14 12 12 11 10 10 10 9 7 7 6 5 4 3 2
8 15 12 9 9 4 14 13 13 16 13 13 9 9 9 7 5 12 7 12 13 14 16 15 16 17 15 15 15 16 14 14 11 12 11 10 9 7 7 5 4 3 2 1
11 14 14 12 11 13 7 10 11 13 13 18 14 8 4 6 10 7 4 10 13 15 18 17 17 16 16 14 14 12 14 13 12 12 12 10 8 7 7 6 4 3 3 3
16 14 9 12 12 15 10 14 14 9 11 13 16 14 10 3 3 1 4 10 15 16 17 17 17 18 17 16 15 14 13 14 13 13 12 11 10 8 7 6 5 4 4 2
13 10 6 12 14 7 9 13 17 15 15 15 14 11 14 7 7 11 6 8 14 17 18 18 17 16 15 16 15 16 14 13 13 12 12 11 10 8 6 6 5 5 4 4
9 7 9 11 14 11 11 9 8 15 16 13 13 13 10 9 10 13 12 10 13 18 19 17 14 14 15 16 16 15 14 13 12 11 12 12 10 9 8 7 6 5 4 4
8 7 9 10 12 14 16 10 14 13 13 15 15 14 7 12 8 11 5 8 13 16 18 16 15 15 14 14 14 14 13 13 13 13 11 10 10 10 8 6 5 3 4 4
13 8 9 12 14 17 14 11 12 9 9 15 13 11 11 10 10 10 8 5 8 12 16 16 16 16 16 14 15 15 14 13 11 10 10 9 8 7 6 4 4 4 4 5
9 9 13 12 13 15 7 6 4 9 3 10 12 10 10 8 7 9 6 3 3 8 13 14 15 14 13 12 13 13 13 11 10 9 9 8 6 4 2 3 3 3 4 5
10 9 8 11 10 14 12 7 7 7 6 8 9 9 7 8 4 4 3 2 4 8 10 8 11 11 14 13 12 12 13 12 11 8 7 5 4 4 6 3 3 4 5 5
10 12 10 9 6 2 6 6 8 10 9 9 9 9 5 4 4 3 4 6 8 8 7 8 9 11 9 6 8 12 13 9 9 12 10 8 6 5 2 4 4 5 6 6
9 2 7 12 10 6 6 8 5 6 7 8 7 8 6 5 2 6 7 9 9 9 9 13 12 7 10 10 8 3 10 12 12 9 9 7 6 5 4 5 7 7 7 6
6 2 4 10 14 7 2 6 9 10 4 4 3 4 1 3 6 9 11 10 10 7 6 12 12 11 9 11 13 11 10 11 10 9 8 6 6 7 6 7 6 6 4 5
9 7 6 6 7 5 5 6 6 8 1 3 3 8 10 11 12 14 11 11 10 9 9 8 10 11 10 10 12 11 11 10 9 8 6 5 6 6 6 5 6 13 11 6
Wind_Direction
214 240 231 205 137 191 247 282 103 92 91 280 258 297 95 158 193 199 192 180 195 190 185 179 195 180 190 209 189 196 194 205 209 207 199 214 192 186 149 27 157 215 232 217
194 245 242 26 12 273 264 39 45 81 130 281 336 344 114 157 172 195 196 187 187 200 174 191 189 181 186 188 191 178 191 166 209 215 182 304 298 176 220 124 196 208 237 244
233 323 112 216 206 261 263 21 32 348 314 20 314 19 281 120 150 171 198 202 187 189 202 176 193 179 182 177 194 178 195 178 204 249 187 163 275 321 194 214 164 263 232 269
253 151 197 225 266 293 106 269 342 308 303 188 234 147 35 166 135 165 197 203 198 188 180 191 184 189 188 190 184 177 176 186 190 202 193 140 242 10 31 63 42 291 31 319
224 147 208 242 259 20 316 2 315 287 284 273 333 290 248 186 74 125 187 203 199 193 182 178 195 185 194 165 179 166 167 191 189 192 267 185 241 4 132 332 92 17 108 15
254 166 214 239 252 221 305 288 267 249 0 333 224 299 91 274 64 105 150 196 195 185 173 168 169 167 178 156 166 161 169 179 198 196 200 242 206 228 274 259 237 216 180 145
225 242 232 238 257 207 247 259 272 288 100 234 348 284 50 97 79 76 147 172 180 165 167 165 161 166 167 162 176 166 168 177 186 195 210 206 212 229 174 220 179 316 137 134
214 220 209 212 237 270 253 296 295 280 305 182 172 309 104 282 106 123 129 163 167 180 158 163 165 160 167 167 176 171 164 179 186 184 188 188 196 210 206 160 168 156 185 54
230 221 227 213 217 225 253 253 282 292 299 314 125 222 94 92 114 136 156 153 172 173 149 154 160 165 167 172 171 162 164 171 181 176 170 169 177 223 115 98 149 140 301 138
273 286 252 178 228 256 270 286 263 217 259 269 61 275 118 340 129 153 168 177 173 163 161 159 164 161 164 171 165 164 167 170 183 156 168 164 131 99 125 127 50 37 86 2
256 219 196 206 220 252 206 242 258 289 290 319 307 85 116 161 257 149 173 185 171 165 170 162 167 160 165 164 160 166 172 167 175 174 166 135 141 142 145 127 129 134 99 118
228 236 235 201 231 233 283 237 230 247 228 248 319 283 340 45 0 32 181 171 169 168 171 167 171 166 165 165 162 169 173 171 181 130 150 141 142 150 130 139 121 125 158 169
224 234 252 234 171 201 248 253 274 272 273 275 221 243 76 304 168 184 275 156 174 172 174 171 171 172 173 170 169 162 174 175 157 158 159 152 152 158 137 139 135 139 173 164
285 237 234 247 232 275 193 220 239 258 256 257 251 273 275 329 185 129 271 161 182 183 176 182 178 172 180 174 173 164 181 163 155 171 160 157 164 144 136 126 117 126 131 158
246 244 262 270 277 278 282 228 238 249 265 273 277 204 357 27 24 23 181 182 186 187 182 187 187 172 177 176 172 175 181 153 166 164 160 161 139 135 140 136 131 153 149 112
220 261 291 300 293 269 240 262 274 212 261 255 275 288 319 20 85 346 292 228 196 192 194 193 191 174 180 172 173 177 163 166 168 169 163 149 154 159 151 142 152 161 145 182
227 241 249 257 265 298 244 243 265 254 225 239 256 248 259 329 337 338 295 238 216 200 200 197 192 179 179 175 175 171 165 167 167 170 152 159 158 152 157 161 170 167 173 193
197 254 272 284 295 262 265 320 312 298 252 257 252 268 287 321 345 304 289 253 234 210 199 193 185 175 175 172 168 165 160 168 167 163 160 160 163 156 169 179 179 175 186 215
247 277 268 266 255 270 273 256 228 254 274 294 326 272 346 360 304 296 232 276 258 216 189 181 178 173 166 167 160 154 159 166 166 170 168 169 166 166 176 181 173 200 215 223
270 234 271 268 273 277 290 34 6 342 262 12 1 10 358 335 287 56 356 279 235 205 173 173 176 160 164 164 157 161 165 167 166 163 162 167 169 175 178 178 185 197 221 248
220 239 253 239 247 259 44 34 333 249 41 7 3 357 353 336 5 344 351 296 169 160 157 163 164 151 156 155 155 160 153 155 154 154 151 163 165 156 208 185 200 225 236 299
254 253 240 248 267 260 16 279 304 19 340 4 352 343 349 329 23 29 48 139 126 129 109 162 131 117 144 166 157 147 147 138 137 138 148 148 162 221 159 215 219 225 245 247
243 278 310 314 18 110 11 342 343 342 331 328 338 333 319 296 31 33 98 113 123 118 152 131 99 90 111 134 147 144 135 134 151 146 158 154 198 208 191 224 246 253 225 267
190 151 266 289 285 345 354 336 314 325 318 329 321 332 309 295 142 109 108 113 112 120 132 120 123 130 125 92 29 126 154 146 150 159 177 158 190 201 222 239 225 230 261 252
38 165 261 269 257 307 255 24 334 318 322 328 10 321 344 119 106 124 102 107 109 93 87 112 126 139 206 138 168 186 154 154 160 162 185 175 197 191 235 226 272 277 259 339
225 256 245 25 39 337 343 341 323 277 214 31 143 90 71 86 100 94 97 133 140 132 121 121 124 132 143 148 165 159 157 167 167 184 183 206 221 207 213 244 226 208 232 243